Station JCRN4 - Nacote Creek, Jacques Cousteau Reserve, NJ Image indicating link to RSS feed of recent meteorological observations for station JCRN4


Conditions at JCRN4 as of
(7:30 am EDT)
1130 GMT on 04/20/2024:
     

Click on the graph icon in the table below to see a time series plot of the last five days of that observation.

5-day plot - Wind Direction Wind Direction (WDIR):SSE ( 160 deg true )
5-day plot - Wind Speed Wind Speed (WSPD): 1.0 kts
5-day plot - Atmospheric Pressure Atmospheric Pressure (PRES):30.03 in
5-day plot - Air Temperature Air Temperature (ATMP): 50.5 °F
5-day plot - Dew Point Dew Point (DEWP): 50.5 °F
5-day plot -  Wind Speed, Wind Gust and Atmospheric Pressure Combined plot of Wind Speed, Gust, and Air Pressure
Previous observations
TIME
(EDT)
5-day plot - Wind Direction
WDIR
 
5-day plot - Wind Speed
WSPD
kts
5-day plot - Wind Gust
GST
kts
5-day plot - Wave Height
WVHT
ft
5-day plot - Dominant Wave Period
DPD
sec
5-day plot - Average Wave Period
APD
sec
5-day plot - Mean Wave Direction
MWD
 
5-day plot - Atmospheric Pressure
PRES
in
5-day plot - Pressure Tendency
PTDY
in
5-day plot - Air Temperature
ATMP
°F
5-day plot - Water Temperature
WTMP
°F
5-day plot - Dew Point
DEWP
°F
5-day plot - Salinity
SAL
psu
5-day plot - Visibility
VIS
nmi
5-day plot - Tide (above MLLW)
TIDE
ft
2024-04-20 07:15 am- 0.0-----30.03- 50.4- 50.4---
2024-04-20 07:00 am S 1.0-----30.03+0.00 50.4- 50.4---
2024-04-20 06:45 am S 2.9-----30.03- 50.2- 50.2---
2024-04-20 06:30 amSSE 1.9-----30.03- 50.4- 50.4---
2024-04-20 06:15 amSSE 2.9-----30.03- 50.2- 50.2---
2024-04-20 06:00 amSSE 1.9-----30.00-0.03 50.2- 50.2---
2024-04-20 05:45 am S 2.9-----30.03- 50.2- 50.2---
2024-04-20 05:30 amSSE 2.9-----30.03- 49.8- 49.8---
2024-04-20 05:15 amESE 1.9-----30.03- 49.8- 49.8---
2024-04-20 05:00 am SE 1.9-----30.03-0.03 49.8- 49.8---
2024-04-20 04:45 amESE 1.9-----30.03- 49.8- 49.8---
2024-04-20 04:30 am E 2.9-----30.00- 49.6- 49.6---
2024-04-20 04:15 am E 1.9-----30.03- 49.6- 49.6---
2024-04-20 04:00 am- 0.0-----30.03-0.03 49.5- 49.5---
2024-04-20 03:45 am- 0.0-----30.03- 49.3- 49.3---
2024-04-20 03:30 am- 0.0-----30.03- 49.3- 49.3---
2024-04-20 03:15 am- 0.0-----30.03- 49.3- 49.3---
2024-04-20 03:00 am- 0.0-----30.03-0.06 49.1- 49.1---
2024-04-20 02:45 am- 0.0-----30.03- 49.3- 49.3---
2024-04-20 02:30 am- 0.0-----30.06- 49.1- 49.1---
2024-04-20 02:15 am- 0.0-----30.06- 49.1- 49.1---
2024-04-20 02:00 am W 1.9-----30.06-0.03 49.1- 49.1---
2024-04-20 01:45 amWSW 1.0-----30.06- 49.1- 49.1---
2024-04-20 01:30 am- 0.0-----30.06- 49.1- 49.1---
2024-04-20 01:15 am E 1.9-----30.06- 49.3- 49.3---
2024-04-20 01:00 am E 2.9-----30.06-0.06 49.3- 49.3---
2024-04-20 12:45 am E 4.1-----30.06- 49.3- 49.3---
2024-04-20 12:30 am E 2.9-----30.06- 49.3- 49.3---
2024-04-20 12:15 am E 2.9-----30.09- 49.3- 49.3---
2024-04-20 12:00 amESE 1.9-----30.09+0.00 49.5- 49.5---
2024-04-19 11:45 pmESE 1.9-----30.09- 49.5- 49.5---
2024-04-19 11:30 pm E 1.9-----30.09- 49.8- 49.8---
2024-04-19 11:15 pm E 1.0-----30.09- 49.8- 49.8---
2024-04-19 11:00 pm E 2.9-----30.09+0.00 50.0- 50.0---
2024-04-19 10:45 pm E 2.9-----30.09- 49.8- 49.8---
2024-04-19 10:30 pm E 4.1-----30.09- 49.8- 49.8---
2024-04-19 10:15 pm E 4.1-----30.12- 50.0- 50.0---
2024-04-19 10:00 pmENE 2.9-----30.12+0.06 50.0- 50.0---
2024-04-19 09:45 pmENE 4.1-----30.12- 49.8- 49.8---
2024-04-19 09:30 pmENE 4.1-----30.12- 49.8- 49.8---
2024-04-19 09:15 pmENE 4.1-----30.12- 49.8- 49.8---
2024-04-19 09:00 pm NE 5.1-----30.09+0.00 50.0- 50.0---
2024-04-19 08:45 pm NE 5.1-----30.09- 49.8- 49.8---
2024-04-19 08:30 pmENE 2.9-----30.09- 49.5- 49.5---
2024-04-19 08:15 pm E 1.9-----30.09- 49.6- 49.6---
2024-04-19 08:00 pmENE 1.9-----30.09-0.03 49.3- 49.3---
2024-04-19 07:45 pm E 2.9-----30.09- 49.5- 49.5---
2024-04-19 07:30 pmENE 7.0-----30.09- 49.5- 49.5---
2024-04-19 07:15 pmENE 8.0-----30.06- 49.6- 49.6---
2024-04-19 07:00 pmENE 8.0-----30.06-0.09 49.8- 49.8---
2024-04-19 06:45 pmENE 8.0-----30.09- 49.8- 49.8---
2024-04-19 06:30 pmENE 8.9-----30.09- 50.2- 50.2---
2024-04-19 06:15 pmENE 8.0-----30.09- 50.4- 50.4---
2024-04-19 06:00 pmENE 7.0-----30.09-0.06 51.1- 51.1---
2024-04-19 05:45 pmENE 8.0-----30.12- 51.3- 51.3---
2024-04-19 05:30 pm E 7.0-----30.12- 51.1- 51.1---
2024-04-19 05:15 pmENE 8.0-----30.12- 51.3- 51.3---
2024-04-19 05:00 pmENE 8.9-----30.12-0.03 51.3- 51.1---
2024-04-19 04:45 pmENE 6.0-----30.12- 51.6- 50.5---
2024-04-19 04:30 pmENE 7.0-----30.12- 52.3- 50.4---
2024-04-19 04:15 pmENE 4.1-----30.15- 52.7- 50.2---
2024-04-19 04:00 pm NE 1.9-----30.15+0.00 52.3- 50.2---
2024-04-19 03:45 pmNNE 2.9-----30.15- 52.0- 49.8---
2024-04-19 03:30 pmNNE 4.1-----30.15- 52.3- 49.5---
2024-04-19 03:15 pmNNE 6.0-----30.15- 52.5- 49.6---
2024-04-19 03:00 pm NE 8.0-----30.15-0.03 52.3- 49.8---
2024-04-19 02:45 pm NE 8.9-----30.12- 52.3- 49.5---
2024-04-19 02:30 pm NE 9.9-----30.12- 52.7- 48.9---
2024-04-19 02:15 pm NE 8.9-----30.12- 53.1- 49.1---
2024-04-19 02:00 pm NE 8.9-----30.15-0.03 52.7- 48.9---
2024-04-19 01:45 pm NE 8.9-----30.15- 52.7- 48.7---
2024-04-19 01:30 pmNNE 8.0-----30.15- 52.3- 48.6---
2024-04-19 01:15 pm NE 8.0-----30.15- 51.6- 48.2---
2024-04-19 01:00 pmNNE 8.0-----30.15-0.03 52.0- 48.6---
2024-04-19 12:45 pmNNE 8.9-----30.15- 52.0- 48.2---
2024-04-19 12:30 pmNNE 8.9-----30.15- 52.0- 48.6---
2024-04-19 12:15 pm NE 11.1-----30.15- 51.6- 48.2---
2024-04-19 12:00 pmNNE 11.1-----30.18+0.00 52.2- 48.4---
2024-04-19 11:45 amNNE 11.1-----30.18- 52.3- 48.9---
2024-04-19 11:30 amNNE 11.1-----30.18- 52.0- 48.9---
2024-04-19 11:15 amNNE 11.1-----30.18- 51.8- 48.7---
2024-04-19 11:00 amNNE 8.9-----30.18+0.00 52.0- 48.2---
2024-04-19 10:45 amNNE 8.0-----30.18- 52.2- 48.4---
2024-04-19 10:30 am N 8.9-----30.18- 51.8- 48.0---
2024-04-19 10:15 amNNE 11.1-----30.18- 51.3- 47.8---
2024-04-19 10:00 amNNE 11.1-----30.18+0.00 51.1- 48.2---
2024-04-19 09:45 amNNE 9.9-----30.18- 50.7- 48.7---
2024-04-19 09:30 amNNE 12.0-----30.18- 50.4- 48.7---
2024-04-19 09:15 amNNE 14.0-----30.18- 49.8- 48.7---
2024-04-19 09:00 amNNE 13.0-----30.18+0.00 49.8- 48.2---
2024-04-19 08:45 amNNE 13.0-----30.18- 50.2- 48.0---
2024-04-19 08:30 amNNE 15.0-----30.18- 50.5- 47.5---
2024-04-19 08:15 amNNE 13.0-----30.18- 50.0- 47.3---
2024-04-19 08:00 amNNE 13.0-----30.18+0.03 49.8- 46.4---